[[{"header":{"parameterUnit":"m.s-1","parameterCategory":1,"la1":30.2991,"la2":30.254,"lo1":-89.0895,"lo2":-89.0444,"dy":0.0017,"dx":0.0017,"nx":28,"ny":28,"refTime":"2023-11-01T03:00:00:Z","depth":0,"parameterNumber":2,"parameterNumberName":"U-component_of_WINDS"},"data":[0,0,0,0,0,0,0,0,0,0,0,0,0,0,0,0,0,0,0,0,0,0,0,0,0,0,0,0,0,0,0,0,0,0,0,0,0,0,0,0,0,0,0,0,0,0,0,0,0,0,0,0,0,0,0,0,0,0,1.7845,1.7845,0,1.7866,1.7866,1.7867,1.7857,1.7856,1.7855,1.7855,1.7876,1.7877,1.7878,0,0,0,0,0,0,0,0,0,0,0,0,0,1.7796,1.7797,1.7845,1.7845,1.7845,1.7866,1.7866,1.7867,1.7857,1.7856,1.7855,1.7855,1.7876,1.7877,1.7878,0,0,0,0,0,0,0,0,0,0,0,0,0,1.7817,1.7797,1.7845,1.7843,1.7843,1.7866,1.7866,1.7867,1.7857,1.7856,1.7855,1.7854,1.7875,1.7877,1.7878,1.7904,0,0,1.7883,1.7884,0,0,0,0,0,0,0,0,1.7816,1.7819,1.7843,1.7843,1.7843,1.7858,1.7857,1.7879,1.7857,1.7851,1.7855,1.7854,1.7871,1.7873,1.7878,1.7905,1.7906,1.7883,1.7884,1.7885,1.7885,0,0,0,0,0,0,0,1.7814,1.7818,1.7853,1.7843,1.7843,1.7841,1.7843,1.7861,1.7865,1.7852,1.7851,1.7854,1.787,1.7877,1.7879,1.7907,1.7883,1.7885,1.7886,1.7886,1.7958,1.7959,0,0,0,0,0,0,1.7813,1.7817,1.7853,1.7854,1.7827,1.7843,1.7845,1.7854,1.7865,1.7866,1.7855,1.7853,1.7874,1.7877,1.7879,1.7911,1.7885,1.7887,1.7887,1.7957,1.7958,1.7959,0,0,0,0,0,0,1.7812,1.7816,1.7852,1.7835,1.784,1.7844,1.7855,1.7855,1.7861,1.7867,1.7868,1.786,1.7874,1.7877,1.7899,1.7912,1.7887,1.7889,1.7956,1.7957,1.7958,1.7975,0,0,0,0,0,0,1.7811,1.7816,1.7826,1.7836,1.784,1.7871,1.7855,1.7856,1.7864,1.7863,1.7873,1.7873,1.7873,1.7896,1.79,1.7914,1.789,1.7954,1.7956,1.7958,1.7973,1.7977,1.798,0,0,0,0,0,1.7809,1.7829,1.7826,1.7831,1.7853,1.7871,1.7874,1.7874,1.7865,1.7875,1.7879,1.7873,1.791,1.7899,1.7903,1.7917,1.7954,1.7956,1.7958,1.7972,1.7976,1.798,0,0,0,0,0,0,1.782,1.783,1.7827,1.7851,1.7861,1.787,1.7882,1.7878,1.789,1.7888,1.7888,1.789,1.7912,1.7917,1.7904,1.7944,1.793,1.7934,1.7939,1.7944,1.7947,1.7945,1.7891,0,0,0,0,0,1.7825,1.784,1.7848,1.7868,1.7873,1.7877,1.7885,1.7884,1.7894,1.7897,1.7903,1.7913,1.7926,1.7935,1.7948,1.7974,1.7976,1.7986,1.7989,1.7992,1.7994,1.8009,1.8014,1.7966,1.7966,1.7966,0,0,1.7836,1.7844,1.7852,1.7871,1.7878,1.7893,1.788,1.7896,1.7907,1.79,1.7921,1.7925,1.7936,1.796,1.7971,1.7964,1.8008,1.7995,1.7997,1.7998,1.8012,1.8016,1.8021,1.7967,1.7967,1.7967,0,0,1.7864,1.7871,1.7889,1.7897,1.7908,1.7911,1.7915,1.7925,1.7928,1.7949,1.7944,1.7958,1.7981,1.7989,1.7996,1.8029,1.8024,1.8033,1.805,1.8065,1.8068,1.8072,1.8084,1.8088,1.8036,1.8036,1.8036,0,1.7876,1.7898,1.7898,1.7915,1.7924,1.7919,1.7937,1.7945,1.796,1.7966,1.7959,1.7989,1.7996,1.8022,1.803,1.8036,1.8041,1.8032,1.8068,1.8071,1.8074,1.8086,1.809,1.8037,1.8037,1.8037,1.8037,0,1.7912,1.7928,1.7941,1.7957,1.7967,1.7984,1.7988,1.7998,1.7997,1.8001,1.8023,1.8031,1.8046,1.8052,1.8051,1.8079,1.8075,1.8068,1.8055,1.808,1.8091,1.8095,1.8039,1.8038,1.8038,1.8038,0,0,1.7945,1.7962,1.7967,1.7974,1.7988,1.8,1.8018,1.8033,1.8042,1.8053,1.8068,1.8089,1.8083,1.8092,1.8092,1.8104,1.813,1.8096,1.8096,1.8102,1.8162,1.8167,1.8172,1.8128,1.8129,1.8129,1.8161,0,1.7974,1.8005,1.8007,1.8036,1.8051,1.8047,1.8063,1.8073,1.8077,1.8091,1.8095,1.811,1.8102,1.8107,1.8119,1.8125,1.8142,1.8122,1.8142,1.8143,1.8139,1.8177,1.8182,1.8212,1.8166,1.8166,1.8167,0,1.8011,1.8024,1.8054,1.8066,1.8072,1.8086,1.8101,1.8114,1.8126,1.8128,1.8139,1.8137,1.8156,1.8143,1.8169,1.8156,1.8164,1.8168,1.8169,1.8171,1.8156,1.818,1.8221,1.8226,1.8173,1.8173,1.8172,0,1.8032,1.8057,1.8079,1.8085,1.81,1.811,1.8117,1.8128,1.8137,1.815,1.8157,1.8172,1.818,1.8192,1.8195,1.8185,1.8221,1.8208,1.8224,1.8224,1.8231,1.823,1.8274,1.8237,1.8237,1.8237,1.8237,0,1.8063,1.8082,1.8089,1.8102,1.8123,1.8126,1.8146,1.8152,1.8163,1.8177,1.8175,1.8189,1.8192,1.8207,1.821,1.8231,1.8235,1.8238,1.8238,1.8238,1.8237,1.8242,1.824,1.8238,1.8238,1.8238,1.8237,0,1.809,1.8095,1.8119,1.8131,1.8135,1.815,1.8161,1.8174,1.8179,1.8198,1.8202,1.821,1.8227,1.8231,1.8252,1.8254,1.8279,1.8278,1.8275,1.8275,1.8291,1.8289,1.8339,1.8346,1.8304,1.8305,1.8305,0,1.8109,1.8124,1.8138,1.8148,1.8155,1.8171,1.8181,1.8185,1.8196,1.8211,1.8222,1.824,1.8253,1.8281,1.8289,1.8305,1.8303,1.832,1.8306,1.8305,1.8304,1.8303,1.8304,1.8322,1.8323,1.8323,1.8323,0,1.8143,1.8145,1.816,1.8176,1.8188,1.8201,1.8213,1.8221,1.8227,1.8239,1.8257,1.8268,1.829,1.8307,1.8323,1.833,1.8328,1.8328,1.8333,1.8332,1.833,1.8331,1.8283,1.8327,1.8326,1.8326,1.8326,1.8326,1.8166,1.818,1.8192,1.8209,1.8219,1.8231,1.8244,1.8251,1.8266,1.8284,1.8286,1.8305,1.8318,1.834,1.8348,1.8364,1.8359,1.8365,1.8367,1.8368,1.837,1.8328,1.8367,1.8367,1.8367,1.8367,1.8367,0,1.82,1.8208,1.8224,1.8242,1.8255,1.8253,1.8266,1.8278,1.8295,1.8307,1.8322,1.8343,1.836,1.837,1.8387,1.8398,1.8397,1.8402,1.8401,1.8403,1.8373,1.8367,1.8402,1.8402,1.8402,1.8402,1.8402,1.8402,1.8219,1.8241,1.8245,1.8273,1.8281,1.8301,1.8309,1.832,1.833,1.8354,1.8368,1.8375,1.8386,1.8405,1.8421,1.8423,1.8429,1.8435,1.8437,1.8408,1.8405,1.8401,1.8396,1.8436,1.8436,1.8465,1.8466,1.8466]},{"header":{"parameterUnit":"m.s-1","parameterCategory":1,"la1":30.2991,"la2":30.254,"lo1":-89.0895,"lo2":-89.0444,"dy":0.0017,"dx":0.0017,"nx":28,"ny":28,"refTime":"2023-11-01T03:00:00:Z","depth":0,"parameterNumber":3,"parameterNumberName":"V-component_of_WINDS"},"data":[0,0,0,0,0,0,0,0,0,0,0,0,0,0,0,0,0,0,0,0,0,0,0,0,0,0,0,0,0,0,0,0,0,0,0,0,0,0,0,0,0,0,0,0,0,0,0,0,0,0,0,0,0,0,0,0,0,0,-8.647,-8.6472,0,-8.6593,-8.6594,-8.6596,-8.6541,-8.6538,-8.6535,-8.6533,-8.665,-8.6656,-8.6661,0,0,0,0,0,0,0,0,0,0,0,0,0,-8.6182,-8.6188,-8.647,-8.6472,-8.6473,-8.6593,-8.6594,-8.6596,-8.6542,-8.6538,-8.6535,-8.6531,-8.6648,-8.6655,-8.6662,0,0,0,0,0,0,0,0,0,0,0,0,0,-8.6306,-8.6189,-8.647,-8.6461,-8.6461,-8.6592,-8.6594,-8.6596,-8.6543,-8.6538,-8.6534,-8.653,-8.6646,-8.6654,-8.6663,-8.6807,0,0,-8.669,-8.6694,0,0,0,0,0,0,0,0,-8.6299,-8.6317,-8.6461,-8.6462,-8.6462,-8.6548,-8.6536,-8.6667,-8.6544,-8.6512,-8.6533,-8.6527,-8.6619,-8.663,-8.6662,-8.6813,-8.6818,-8.6691,-8.6696,-8.67,-8.6702,0,0,0,0,0,0,0,-8.629,-8.6311,-8.6518,-8.6463,-8.6464,-8.6448,-8.6461,-8.656,-8.6588,-8.6514,-8.651,-8.6526,-8.6618,-8.6654,-8.6665,-8.682,-8.6691,-8.6698,-8.6704,-8.6707,-8.7096,-8.7101,0,0,0,0,0,0,-8.6283,-8.6304,-8.6514,-8.6522,-8.6368,-8.6457,-8.6471,-8.6525,-8.6587,-8.6593,-8.653,-8.6523,-8.6641,-8.6654,-8.6668,-8.6843,-8.67,-8.6708,-8.6713,-8.7091,-8.7097,-8.7102,0,0,0,0,0,0,-8.6277,-8.6302,-8.6509,-8.6412,-8.6438,-8.6467,-8.6527,-8.6529,-8.6565,-8.66,-8.6603,-8.6561,-8.6638,-8.6656,-8.6774,-8.6846,-8.6712,-8.672,-8.7085,-8.7093,-8.71,-8.7192,0,0,0,0,0,0,-8.6269,-8.6301,-8.6357,-8.6414,-8.6443,-8.6616,-8.6532,-8.6535,-8.6581,-8.6574,-8.663,-8.6635,-8.6636,-8.6761,-8.6783,-8.6856,-8.6727,-8.7079,-8.7088,-8.7097,-8.7182,-8.7201,-8.7218,0,0,0,0,0,-8.6259,-8.6376,-8.636,-8.6386,-8.6515,-8.662,-8.6636,-8.6637,-8.6587,-8.6644,-8.6666,-8.6633,-8.6835,-8.6774,-8.6798,-8.6874,-8.7074,-8.7086,-8.7097,-8.7174,-8.7198,-8.7217,0,0,0,0,0,0,-8.6323,-8.6383,-8.6366,-8.6506,-8.6559,-8.6611,-8.6681,-8.6661,-8.6727,-8.6716,-8.6712,-8.6725,-8.6848,-8.6872,-8.6804,-8.7018,-8.6946,-8.6963,-8.6997,-8.702,-8.7037,-8.7028,-8.6735,0,0,0,0,0,-8.6354,-8.6437,-8.6484,-8.6602,-8.663,-8.6652,-8.6697,-8.6694,-8.6747,-8.6768,-8.6799,-8.6849,-8.6924,-8.6973,-8.7044,-8.7186,-8.7197,-8.725,-8.7268,-8.7282,-8.7296,-8.7374,-8.7398,-8.7139,-8.7139,-8.7139,0,0,-8.6417,-8.6461,-8.6512,-8.6616,-8.6657,-8.6741,-8.667,-8.6761,-8.6823,-8.678,-8.6895,-8.692,-8.6976,-8.7107,-8.7166,-8.7131,-8.7371,-8.7297,-8.7308,-8.7314,-8.7388,-8.7413,-8.7434,-8.7147,-8.7146,-8.7144,0,0,-8.6577,-8.6618,-8.6722,-8.6765,-8.6829,-8.6843,-8.6868,-8.6924,-8.6939,-8.7055,-8.7026,-8.7097,-8.7226,-8.7268,-8.7306,-8.7484,-8.7456,-8.7506,-8.7598,-8.7674,-8.7695,-8.7713,-8.7776,-8.7799,-8.752,-8.7521,-8.7521,0,-8.6647,-8.6775,-8.6777,-8.6872,-8.6918,-8.6888,-8.6992,-8.7033,-8.7115,-8.7146,-8.7107,-8.7269,-8.7305,-8.7446,-8.749,-8.7521,-8.7549,-8.75,-8.7692,-8.771,-8.7727,-8.7788,-8.7812,-8.7526,-8.7526,-8.7525,-8.7525,0,-8.6858,-8.6947,-8.7023,-8.7108,-8.7162,-8.7261,-8.7277,-8.7332,-8.7324,-8.7342,-8.746,-8.7502,-8.7581,-8.7614,-8.7606,-8.7755,-8.7731,-8.7692,-8.762,-8.7758,-8.7814,-8.7838,-8.7535,-8.7533,-8.7531,-8.753,0,0,-8.7059,-8.7146,-8.7174,-8.7213,-8.7282,-8.7349,-8.7447,-8.7528,-8.7575,-8.7632,-8.7713,-8.7824,-8.779,-8.7833,-8.7829,-8.7896,-8.8035,-8.7848,-8.785,-8.7882,-8.8201,-8.823,-8.8257,-8.8017,-8.8021,-8.8025,-8.8197,0,-8.7224,-8.7399,-8.7404,-8.7563,-8.7645,-8.7618,-8.7703,-8.7753,-8.7773,-8.7843,-8.7863,-8.7943,-8.789,-8.7916,-8.7981,-8.8004,-8.8099,-8.7992,-8.809,-8.8094,-8.8078,-8.8287,-8.8318,-8.8478,-8.8219,-8.8223,-8.8225,0,-8.7439,-8.7508,-8.7676,-8.7735,-8.777,-8.7846,-8.7922,-8.799,-8.8046,-8.8056,-8.8106,-8.8093,-8.8191,-8.8117,-8.8251,-8.8178,-8.8219,-8.8236,-8.8242,-8.8251,-8.8168,-8.8302,-8.8529,-8.8553,-8.826,-8.8258,-8.8255,0,-8.757,-8.7704,-8.7823,-8.7856,-8.7928,-8.7982,-8.8014,-8.8066,-8.8115,-8.818,-8.8212,-8.8286,-8.8326,-8.8383,-8.839,-8.8336,-8.8525,-8.8451,-8.8534,-8.8535,-8.8575,-8.8572,-8.8812,-8.8602,-8.8601,-8.8601,-8.86,0,-8.7753,-8.7857,-8.7883,-8.7955,-8.8071,-8.8076,-8.8189,-8.8216,-8.8263,-8.8339,-8.8318,-8.839,-8.8395,-8.8467,-8.8473,-8.8583,-8.8601,-8.861,-8.861,-8.8612,-8.8611,-8.8639,-8.8628,-8.8607,-8.8606,-8.8604,-8.8603,0,-8.7918,-8.794,-8.8067,-8.8126,-8.8143,-8.8226,-8.8275,-8.8343,-8.8362,-8.8458,-8.8481,-8.8509,-8.8593,-8.8606,-8.8704,-8.8708,-8.8841,-8.8829,-8.8823,-8.8821,-8.8904,-8.8896,-8.9169,-8.9206,-8.8971,-8.8974,-8.8976,0,-8.8034,-8.8114,-8.8182,-8.8234,-8.827,-8.8352,-8.8403,-8.8411,-8.8464,-8.8536,-8.8595,-8.8679,-8.8746,-8.8882,-8.8909,-8.8984,-8.8974,-8.9065,-8.8985,-8.8985,-8.8976,-8.8971,-8.8979,-8.908,-8.9083,-8.9085,-8.9086,0,-8.8237,-8.8244,-8.832,-8.8401,-8.8464,-8.8526,-8.8585,-8.8628,-8.8643,-8.8704,-8.8792,-8.8845,-8.8947,-8.903,-8.9105,-8.9134,-8.9113,-8.9112,-8.9135,-8.9138,-8.9131,-8.9136,-8.8865,-8.9105,-8.9103,-8.9102,-8.9101,-8.91,-8.8381,-8.8451,-8.8512,-8.8597,-8.8644,-8.87,-8.8768,-8.8797,-8.8872,-8.8958,-8.8957,-8.9054,-8.9109,-8.9208,-8.9243,-8.9317,-8.9288,-8.9321,-8.933,-8.9338,-8.9346,-8.912,-8.9331,-8.933,-8.933,-8.9329,-8.9329,0,-8.8583,-8.8622,-8.8701,-8.8787,-8.8854,-8.8832,-8.8896,-8.8953,-8.904,-8.9094,-8.9162,-8.9264,-8.9344,-8.9379,-8.9458,-8.9511,-8.9503,-8.9531,-8.9527,-8.9534,-8.9368,-8.9341,-8.9536,-8.9536,-8.9536,-8.9536,-8.9536,-8.9536,-8.8697,-8.8815,-8.883,-8.8971,-8.9008,-8.9106,-8.9145,-8.9196,-8.924,-8.9356,-8.9424,-8.9447,-8.9494,-8.9576,-8.9649,-8.9656,-8.9686,-8.9719,-8.9723,-8.9567,-8.9546,-8.9526,-8.95,-8.9726,-8.9726,-8.9882,-8.9884,-8.9885]}]]